Tarawa Terrace, NC

6:39 PM EDT on August 30, 2016 (GMT -0400)
New River Marine Corps Air Station

Weather History for KNCA - June, 2012

Change the Weather History Date:

Wednesday, June 13, 2012

  Actual Average Record
Temperature  
Mean Temperature 80 °F -  
Max Temperature 86 °F 83 °F 98 °F (2000)
Min Temperature 72 °F 65 °F 62 °F (2007)
Cooling Degree Days 14    
Growing Degree Days 30 (Base 50)    
Moisture  
Dew Point 69 °F    
Average Humidity 76    
Maximum Humidity 96    
Minimum Humidity 53    
Precipitation  
Precipitation 0.01 in - - ()
Sea Level Pressure  
Sea Level Pressure 29.91 in    
Wind  
Wind Speed 6 mph (North)    
Max Wind Speed 13 mph    
Max Gust Speed 16 mph    
Visibility 9 miles    
Events Rain    
Averages and records for this station are not official NWS values.
T = Trace of Precipitation, MM = Missing Value Source: NWS Daily Summary

Daily Weather History Graph

Daily Weather History Graph

Search for Another Location

Airport or City:

Trip Planner

Search our weather history database for the weather conditions in past years. The results will help you decide how hot, cold, wet, or windy it might be!

Date:

Astronomy

Jun. 13, 2012 Rise Set
Actual Time 5:56 AM EDT 8:23 PM EDT
Civil Twilight 5:26 AM EDT 8:53 PM EDT
Nautical Twilight 4:50 AM EDT 9:29 PM EDT
Astronomical Twilight 4:10 AM EDT 10:10 PM EDT
Moon 1:58 AM EDT (6/13) 3:17 PM EDT (6/13)
Length of Visible Light 15h 26m
Length of Day
14h 27m
Waning Crescent, 29% of the Moon is Illuminated
Jun 13
Waning Crescent
Jun 19
New
Jun 26
First Quarter
Jul 3
Full
Jul 10
Last Quarter

Hourly Weather History & Observations

Time (EDT) Temp. Heat Index Dew Point Humidity Pressure Visibility Wind Dir Wind Speed Gust Speed Precip Events Conditions
12:26 AM 73.4 °F - 71.6 °F 94% 29.91 in 10.0 mi South 3.5 mph - 0.00 in Rain Light Rain
12:56 AM 73.0 °F - 71.1 °F 93% 29.91 in 10.0 mi Calm Calm - 0.00 in Rain Light Rain
1:56 AM 73.0 °F - 71.1 °F 93% 29.90 in 10.0 mi WSW 3.5 mph - 0.00 in Rain Light Rain
2:48 AM 73.4 °F - 71.6 °F 94% 29.88 in 9.0 mi West 4.6 mph - 0.00 in Rain Light Rain
2:56 AM 73.0 °F - 72.0 °F 96% 29.89 in 8.0 mi West 4.6 mph - 0.00 in Rain Light Rain
3:56 AM 73.0 °F - 72.0 °F 96% 29.86 in 4.0 mi West 5.8 mph - 0.00 in Rain Light Rain
4:56 AM 73.0 °F - 72.0 °F 96% 29.86 in 4.0 mi WNW 4.6 mph - 0.00 in Rain Light Rain
5:56 AM 73.0 °F - 72.0 °F 96% 29.87 in 6.0 mi West 4.6 mph - 0.01 in Rain Light Rain
6:56 AM 73.0 °F - 72.0 °F 96% 29.88 in 5.0 mi WNW 4.6 mph - 0.00 in   Overcast
7:08 AM 73.4 °F - 71.6 °F 94% 29.87 in 5.0 mi WNW 5.8 mph - N/A   Mostly Cloudy
7:56 AM 75.0 °F - 69.1 °F 82% 29.88 in 10.0 mi NNE 4.6 mph - N/A   Partly Cloudy
8:56 AM 77.0 °F - 71.1 °F 82% 29.90 in 10.0 mi NNE 8.1 mph - N/A   Clear
9:29 AM 77.0 °F - 69.8 °F 78% 29.89 in 10.0 mi North 8.1 mph - N/A   Mostly Cloudy
9:36 AM 77.0 °F - 69.8 °F 78% 29.90 in 10.0 mi North 8.1 mph - N/A   Scattered Clouds
9:56 AM 78.1 °F - 70.0 °F 76% 29.91 in 10.0 mi NNE 8.1 mph - N/A   Mostly Cloudy
10:56 AM 80.1 °F 82.9 °F 69.1 °F 69% 29.91 in 10.0 mi NNE 9.2 mph - N/A   Overcast
11:56 AM 82.0 °F 84.9 °F 68.0 °F 62% 29.90 in 10.0 mi East 9.2 mph - N/A   Overcast
12:03 PM 82.4 °F 85.4 °F 68.0 °F 62% 29.89 in 10.0 mi North 12.7 mph - N/A   Scattered Clouds
12:56 PM 84.0 °F 87.8 °F 69.1 °F 61% 29.91 in 10.0 mi NNE 11.5 mph - N/A   Mostly Cloudy
1:56 PM 82.9 °F 85.8 °F 68.0 °F 60% 29.91 in 10.0 mi NNE 10.4 mph - N/A   Mostly Cloudy
2:56 PM 84.0 °F 87.8 °F 69.1 °F 61% 29.91 in 10.0 mi North 8.1 mph - N/A   Mostly Cloudy
3:56 PM 86.0 °F 89.4 °F 68.0 °F 55% 29.91 in 10.0 mi North 9.2 mph - N/A   Mostly Cloudy
4:56 PM 84.9 °F 87.1 °F 66.0 °F 53% 29.91 in 10.0 mi NNE 12.7 mph - N/A   Clear
5:56 PM 84.9 °F 87.6 °F 66.9 °F 55% 29.90 in 10.0 mi NNE 11.5 mph 16.1 mph N/A   Partly Cloudy
6:56 PM 82.9 °F 85.4 °F 66.9 °F 58% 29.91 in 10.0 mi NE 9.2 mph - N/A   Clear
7:56 PM 79.0 °F - 66.9 °F 66% 29.93 in 10.0 mi NNE 6.9 mph - N/A   Clear
8:56 PM 78.1 °F - 66.9 °F 68% 29.95 in 10.0 mi North 4.6 mph - N/A   Partly Cloudy
9:56 PM 77.0 °F - 68.0 °F 74% 29.96 in 10.0 mi NNW 8.1 mph - N/A   Scattered Clouds
10:56 PM 73.9 °F - 64.9 °F 73% 29.97 in 10.0 mi North 8.1 mph - N/A   Partly Cloudy
11:56 PM 72.0 °F - 63.0 °F 73% 29.98 in 10.0 mi NE 3.5 mph - N/A   Partly Cloudy